EN

Hourly Weather Kytino

Today, 28 July, Wednesday

Time Temperature Precipitation Wind Pressure Humidity
00:00 +19°C° 0.2 mm 2 mps 750 mmHg 77%
01:00 +20°C° 0 mm 1 mps 750 mmHg 77%
02:00 +20°C° 0 mm 1 mps 750 mmHg 77%
03:00 +20°C° 0 mm 1 mps 749 mmHg 77%
04:00 +20°C° 0 mm 1 mps 749 mmHg 76%
05:00 +20°C° 0 mm 1 mps 749 mmHg 75%
06:00 +21°C° 0 mm 1 mps 749 mmHg 74%
07:00 +21°C° 0 mm 2 mps 749 mmHg 68%
08:00 +24°C° 0 mm 2 mps 749 mmHg 62%
09:00 +26°C° 0 mm 2 mps 749 mmHg 56%
10:00 +27°C° 0 mm 3 mps 748 mmHg 51%
11:00 +28°C° 0 mm 3 mps 748 mmHg 47%
12:00 +29°C° 0 mm 3 mps 748 mmHg 42%
13:00 +29°C° 0 mm 3 mps 748 mmHg 44%
14:00 +28°C° 0 mm 3 mps 748 mmHg 46%
15:00 +27°C° 0 mm 3 mps 747 mmHg 46%
16:00 +26°C° 0 mm 3 mps 747 mmHg 50%
17:00 +25°C° 0 mm 3 mps 746 mmHg 54%
18:00 +24°C° 0 mm 2 mps 746 mmHg 57%
19:00 +23°C° 0.1 mm 2 mps 746 mmHg 65%
20:00 +21°C° 0.1 mm 2 mps 746 mmHg 72%
21:00 +20°C° 0.1 mm 2 mps 745 mmHg 80%
22:00 +20°C° 0.4 mm 3 mps 745 mmHg 83%
23:00 +19°C° 0.4 mm 3 mps 745 mmHg 86%

Tomorrow, 29 July, Thursday

Time Temperature Precipitation Wind Pressure Humidity
00:00 +19°C° 0.4 mm 3 mps 745 mmHg 89%
01:00 +19°C° 0.2 mm 3 mps 744 mmHg 90%
02:00 +18°C° 0.2 mm 3 mps 744 mmHg 91%
03:00 +18°C° 0.2 mm 3 mps 744 mmHg 92%
04:00 +18°C° 0 mm 3 mps 744 mmHg 91%
05:00 +18°C° 0 mm 3 mps 744 mmHg 91%
06:00 +18°C° 0 mm 3 mps 744 mmHg 90%
07:00 +20°C° 0 mm 3 mps 743 mmHg 84%
08:00 +22°C° 0 mm 3 mps 743 mmHg 77%
09:00 +25°C° 0 mm 3 mps 743 mmHg 70%
10:00 +27°C° 0.1 mm 4 mps 743 mmHg 63%
11:00 +28°C° 0.1 mm 4 mps 743 mmHg 56%
12:00 +30°C° 0.1 mm 4 mps 743 mmHg 48%
13:00 +30°C° 0 mm 4 mps 743 mmHg 48%
14:00 +29°C° 0 mm 4 mps 743 mmHg 47%
15:00 +29°C° 0 mm 4 mps 742 mmHg 46%
16:00 +29°C° 0 mm 4 mps 742 mmHg 48%
17:00 +28°C° 0 mm 3 mps 742 mmHg 50%
18:00 +28°C° 0 mm 3 mps 742 mmHg 52%
19:00 +27°C° 0 mm 3 mps 742 mmHg 54%
20:00 +26°C° 0 mm 2 mps 742 mmHg 57%
21:00 +25°C° 0 mm 2 mps 742 mmHg 59%
22:00 +25°C° 0 mm 2 mps 742 mmHg 61%
23:00 +24°C° 0 mm 2 mps 742 mmHg 64%

Day after tomorrow, 30 July, Friday

Time Temperature Precipitation Wind Pressure Humidity
00:00 +23°C° 0 mm 2 mps 742 mmHg 66%
01:00 +22°C° 0 mm 3 mps 742 mmHg 67%
02:00 +21°C° 0 mm 3 mps 742 mmHg 68%
03:00 +21°C° 0 mm 3 mps 741 mmHg 69%
04:00 +21°C° 0.1 mm 3 mps 741 mmHg 72%
05:00 +21°C° 0.1 mm 2 mps 741 mmHg 75%
06:00 +21°C° 0.1 mm 2 mps 741 mmHg 78%
07:00 +21°C° 0.1 mm 2 mps 741 mmHg 77%
08:00 +23°C° 0.1 mm 2 mps 741 mmHg 76%
09:00 +24°C° 0.1 mm 1 mps 741 mmHg 75%
10:00 +25°C° 0 mm 2 mps 741 mmHg 69%
11:00 +27°C° 0 mm 3 mps 742 mmHg 64%
12:00 +28°C° 0 mm 4 mps 742 mmHg 58%
13:00 +29°C° 0 mm 5 mps 742 mmHg 55%
14:00 +29°C° 0 mm 5 mps 741 mmHg 53%
15:00 +30°C° 0 mm 5 mps 741 mmHg 50%
16:00 +29°C° 0 mm 5 mps 741 mmHg 54%
17:00 +28°C° 0 mm 5 mps 741 mmHg 57%
18:00 +27°C° 0 mm 5 mps 741 mmHg 61%
19:00 +26°C° 0 mm 4 mps 741 mmHg 65%
20:00 +25°C° 0 mm 3 mps 741 mmHg 70%
21:00 +23°C° 0 mm 2 mps 742 mmHg 74%
22:00 +23°C° 0 mm 2 mps 742 mmHg 74%
23:00 +21°C° 0 mm 2 mps 742 mmHg 74%

31 July, Saturday

Time Temperature Precipitation Wind Pressure Humidity
00:00 +21°C° 0 mm 2 mps 742 mmHg 73%
01:00 +20°C° 0 mm 2 mps 742 mmHg 74%
02:00 +20°C° 0 mm 2 mps 743 mmHg 75%
03:00 +19°C° 0 mm 3 mps 743 mmHg 75%
04:00 +19°C° 0 mm 2 mps 743 mmHg 75%
05:00 +19°C° 0 mm 2 mps 743 mmHg 75%
06:00 +19°C° 0 mm 2 mps 743 mmHg 75%
07:00 +21°C° 0 mm 3 mps 743 mmHg 65%
08:00 +24°C° 0 mm 3 mps 743 mmHg 56%
09:00 +27°C° 0 mm 3 mps 743 mmHg 46%
10:00 +28°C° 0 mm 4 mps 743 mmHg 43%
11:00 +29°C° 0 mm 5 mps 743 mmHg 40%
12:00 +29°C° 0 mm 5 mps 743 mmHg 38%
13:00 +30°C° 0 mm 5 mps 743 mmHg 37%
14:00 +30°C° 0 mm 6 mps 743 mmHg 36%
15:00 +30°C° 0 mm 6 mps 743 mmHg 35%
16:00 +30°C° 0 mm 6 mps 743 mmHg 36%
17:00 +30°C° 0 mm 5 mps 743 mmHg 37%
18:00 +30°C° 0 mm 5 mps 743 mmHg 38%
19:00 +28°C° 0 mm 4 mps 743 mmHg 45%
20:00 +26°C° 0 mm 3 mps 744 mmHg 52%
21:00 +23°C° 0 mm 2 mps 744 mmHg 59%
22:00 +23°C° 0 mm 2 mps 744 mmHg 62%
23:00 +22°C° 0 mm 1 mps 744 mmHg 64%

1 August, Sunday

Time Temperature Precipitation Wind Pressure Humidity
00:00 +21°C° 0 mm 1 mps 745 mmHg 67%
01:00 +21°C° 0 mm 1 mps 745 mmHg 68%
02:00 +20°C° 0 mm 1 mps 745 mmHg 68%
03:00 +20°C° 0 mm 1 mps 745 mmHg 69%
04:00 +20°C° 0 mm 1 mps 745 mmHg 69%
05:00 +20°C° 0 mm 2 mps 745 mmHg 69%
06:00 +20°C° 0 mm 2 mps 745 mmHg 69%
07:00 +22°C° 0 mm 3 mps 745 mmHg 62%
08:00 +26°C° 0 mm 4 mps 745 mmHg 55%
09:00 +28°C° 0 mm 5 mps 745 mmHg 48%
10:00 +30°C° 0 mm 5 mps 745 mmHg 43%
11:00 +32°C° 0 mm 6 mps 744 mmHg 38%
12:00 +34°C° 0 mm 6 mps 744 mmHg 33%
13:00 +35°C° 0 mm 6 mps 744 mmHg 31%
14:00 +35°C° 0 mm 6 mps 744 mmHg 29%
15:00 +36°C° 0 mm 6 mps 744 mmHg 27%
16:00 +35°C° 0 mm 6 mps 744 mmHg 31%
17:00 +34°C° 0 mm 5 mps 743 mmHg 34%
18:00 +33°C° 0 mm 5 mps 743 mmHg 37%
19:00 +30°C° 0 mm 4 mps 744 mmHg 43%
20:00 +28°C° 0 mm 4 mps 744 mmHg 48%
21:00 +26°C° 0 mm 3 mps 744 mmHg 53%
22:00 +25°C° 0.1 mm 2 mps 744 mmHg 56%
23:00 +25°C° 0.1 mm 2 mps 744 mmHg 60%

2 August, Monday

Time Temperature Precipitation Wind Pressure Humidity
00:00 +24°C° 0.1 mm 1 mps 744 mmHg 63%
01:00 +23°C° 0 mm 1 mps 744 mmHg 65%
02:00 +23°C° 0 mm 1 mps 744 mmHg 67%
03:00 +22°C° 0 mm 1 mps 744 mmHg 69%
04:00 +22°C° 0 mm 1 mps 744 mmHg 69%
05:00 +21°C° 0 mm 2 mps 743 mmHg 70%
06:00 +23°C° 0 mm 2 mps 743 mmHg 70%
07:00 +25°C° 0 mm 2 mps 743 mmHg 62%
08:00 +27°C° 0 mm 3 mps 743 mmHg 53%
09:00 +29°C° 0 mm 3 mps 743 mmHg 45%
10:00 +32°C° 0 mm 4 mps 742 mmHg 40%
11:00 +34°C° 0 mm 5 mps 742 mmHg 35%
12:00 +35°C° 0 mm 5 mps 742 mmHg 31%
13:00 +35°C° 0 mm 6 mps 742 mmHg 31%
14:00 +35°C° 0 mm 6 mps 741 mmHg 31%
15:00 +35°C° 0 mm 6 mps 741 mmHg 32%
16:00 +35°C° 0 mm 5 mps 741 mmHg 33%
17:00 +35°C° 0 mm 5 mps 740 mmHg 34%
18:00 +35°C° 0 mm 4 mps 739 mmHg 35%
19:00 +30°C° 0.9 mm 4 mps 740 mmHg 49%
20:00 +26°C° 0.9 mm 4 mps 740 mmHg 64%
21:00 +22°C° 0.9 mm 5 mps 740 mmHg 78%
22:00 +21°C° 0.2 mm 4 mps 740 mmHg 80%
23:00 +21°C° 0.2 mm 4 mps 740 mmHg 82%
Show more